Lewisville's Hourly Summary for Thursday, April 20, 2017
Hour Temp
(f)
RH
(%)
Solar Rad.
(MJ/m2)
Rainfall
(in)
Wind
(mph)
4/20/2017 12:00 AM 74 74 0 0 8.36
4/20/2017 1:00 AM 73 77 0 0 8.74
4/20/2017 2:00 AM 72 79 0 0 10.67
4/20/2017 3:00 AM 71 82 0 0 10.39
4/20/2017 4:00 AM 70 83 0 0 10.02
4/20/2017 5:00 AM 70 84 0 0 9.14
4/20/2017 6:00 AM 70 81 0 0 10.39
4/20/2017 7:00 AM 70 80 0 0 8.28
4/20/2017 8:00 AM 70 80 0.15 0 8.03
4/20/2017 9:00 AM 71 77 0.5 0 9.85
4/20/2017 10:00 AM 72 72 1.33 0 9.19
4/20/2017 11:00 AM 74 67 1.26 0 6.22
4/20/2017 12:00 PM 76 65 1.8 0 6.79
4/20/2017 1:00 PM 78 62 2.5 0 7.52
4/20/2017 2:00 PM 79 59 2.13 0 7.94
4/20/2017 3:00 PM 80 54 2.76 0 8.09
4/20/2017 4:00 PM 81 52 2 0 6.66
4/20/2017 5:00 PM 81 53 1.85 0 6.81
4/20/2017 6:00 PM 82 51 1.54 0 7.06
4/20/2017 7:00 PM 81 55 0.79 0 7.76
4/20/2017 8:00 PM 79 59 0.17 0 6.52
4/20/2017 9:00 PM 77 63 0 0 4.92
4/20/2017 10:00 PM 76 66 0 0 4.43
4/20/2017 11:00 PM 74 71 0 0 1.01
Data Summary 75 68 18.78 0.00 7.70